Time,TemperatureF,DewpointF,PressureIn,WindDirection,WindDirectionDegrees,WindSpeedMPH,WindSpeedGustMPH,Humidity,HourlyPrecipIn,Conditions,Clouds,dailyrainin,SoftwareType,DateUTC
2013-08-17 00:01:00,66.2,62.0,29.16,NNE,22,0.0,1.0,88,0.00,,,0.00,Rainwise IP-100,2013-08-17 04:01:00,
2013-08-17 00:06:00,66.1,62.0,29.16,SSW,202,0.0,1.0,88,0.00,,,0.00,Rainwise IP-100,2013-08-17 04:06:00,
2013-08-17 00:11:00,66.1,62.0,29.17,NE,45,1.4,4.0,87,0.00,,,0.00,Rainwise IP-100,2013-08-17 04:11:00,
2013-08-17 00:16:00,66.0,62.0,29.17,NNE,22,1.4,2.0,87,0.00,,,0.00,Rainwise IP-100,2013-08-17 04:16:00,
2013-08-17 00:21:00,66.0,61.0,29.16,North,0,0.0,3.0,86,0.00,,,0.00,Rainwise IP-100,2013-08-17 04:21:00,
2013-08-17 00:26:00,65.9,61.0,29.17,South,180,1.2,3.0,86,0.00,,,0.00,Rainwise IP-100,2013-08-17 04:26:00,
2013-08-17 00:31:00,65.9,61.0,29.16,NNE,22,0.0,4.0,85,0.00,,,0.00,Rainwise IP-100,2013-08-17 04:31:00,
2013-08-17 00:36:00,65.8,61.0,29.17,SW,225,0.0,3.0,85,0.00,,,0.00,Rainwise IP-100,2013-08-17 04:36:00,
2013-08-17 00:41:00,65.7,60.0,29.17,SSE,157,0.0,4.0,84,0.00,,,0.00,Rainwise IP-100,2013-08-17 04:41:00,
2013-08-17 00:46:00,65.6,60.0,29.16,NNE,22,2.1,3.0,84,0.00,,,0.00,Rainwise IP-100,2013-08-17 04:46:00,
2013-08-17 00:51:00,65.5,60.0,29.17,South,180,0.0,4.0,83,0.00,,,0.00,Rainwise IP-100,2013-08-17 04:51:00,
2013-08-17 00:56:00,65.5,60.0,29.17,NNE,22,0.0,6.0,83,0.00,,,0.00,Rainwise IP-100,2013-08-17 04:56:00,
2013-08-17 01:01:00,65.4,60.0,29.17,North,0,0.0,7.0,83,0.00,,,0.00,Rainwise IP-100,2013-08-17 05:01:00,
2013-08-17 01:06:00,65.4,60.0,29.17,NNE,22,0.0,3.0,83,0.00,,,0.00,Rainwise IP-100,2013-08-17 05:06:00,
2013-08-17 01:11:00,65.3,59.0,29.17,SSW,202,0.0,2.0,83,0.00,,,0.00,Rainwise IP-100,2013-08-17 05:11:00,
2013-08-17 01:16:00,65.3,59.0,29.16,SSW,202,0.0,2.0,83,0.00,,,0.00,Rainwise IP-100,2013-08-17 05:16:00,
2013-08-17 01:21:00,65.2,59.0,29.17,NNE,22,0.0,4.0,83,0.00,,,0.00,Rainwise IP-100,2013-08-17 05:21:00,
2013-08-17 01:26:00,65.2,59.0,29.16,NNE,22,0.0,1.0,83,0.00,,,0.00,Rainwise IP-100,2013-08-17 05:26:00,
2013-08-17 01:31:00,65.1,59.0,29.17,West,270,0.0,3.0,83,0.00,,,0.00,Rainwise IP-100,2013-08-17 05:31:00,
2013-08-17 01:36:00,65.1,59.0,29.16,ENE,67,0.0,4.0,83,0.00,,,0.00,Rainwise IP-100,2013-08-17 05:36:00,
2013-08-17 01:41:00,64.9,59.0,29.16,NNE,22,1.2,7.0,83,0.00,,,0.00,Rainwise IP-100,2013-08-17 05:41:00,
2013-08-17 01:46:00,64.9,60.0,29.16,North,0,0.0,4.0,84,0.00,,,0.00,Rainwise IP-100,2013-08-17 05:46:00,
2013-08-17 01:51:00,64.8,59.0,29.16,NE,45,0.0,4.0,84,0.00,,,0.00,Rainwise IP-100,2013-08-17 05:51:00,
2013-08-17 01:56:00,64.7,60.0,29.16,NNE,22,2.6,4.0,85,0.00,,,0.00,Rainwise IP-100,2013-08-17 05:56:00,
2013-08-17 02:01:00,64.6,60.0,29.16,NNE,22,3.7,3.7,85,0.00,,,0.00,Rainwise IP-100,2013-08-17 06:01:00,
2013-08-17 02:06:00,64.5,60.0,29.17,NNE,22,0.0,5.0,86,0.00,,,0.00,Rainwise IP-100,2013-08-17 06:06:00,
2013-08-17 02:11:00,64.4,60.0,29.17,South,180,1.9,1.9,86,0.00,,,0.00,Rainwise IP-100,2013-08-17 06:11:00,
2013-08-17 02:16:00,64.4,60.0,29.16,South,180,0.0,2.0,86,0.00,,,0.00,Rainwise IP-100,2013-08-17 06:16:00,
2013-08-17 02:21:00,64.3,60.0,29.17,NNE,22,0.0,4.0,87,0.00,,,0.00,Rainwise IP-100,2013-08-17 06:21:00,
2013-08-17 02:26:00,64.2,60.0,29.16,North,0,0.0,2.0,87,0.00,,,0.00,Rainwise IP-100,2013-08-17 06:26:00,
2013-08-17 02:31:00,64.0,60.0,29.17,West,270,0.0,4.0,88,0.00,,,0.00,Rainwise IP-100,2013-08-17 06:31:00,
2013-08-17 02:36:00,64.0,60.0,29.16,NE,45,0.0,3.0,88,0.00,,,0.00,Rainwise IP-100,2013-08-17 06:36:00,
2013-08-17 02:41:00,63.9,60.0,29.16,NNE,22,3.0,4.0,88,0.00,,,0.00,Rainwise IP-100,2013-08-17 06:41:00,
2013-08-17 02:46:00,63.8,60.0,29.16,NNE,22,1.9,3.0,89,0.00,,,0.00,Rainwise IP-100,2013-08-17 06:46:00,
2013-08-17 02:51:00,63.7,60.0,29.16,NE,45,0.0,4.0,89,0.00,,,0.00,Rainwise IP-100,2013-08-17 06:51:00,
2013-08-17 02:56:00,63.6,60.0,29.17,NNE,22,0.0,2.0,89,0.00,,,0.00,Rainwise IP-100,2013-08-17 06:56:00,
2013-08-17 03:01:00,63.5,60.0,29.17,North,0,1.2,2.0,90,0.00,,,0.00,Rainwise IP-100,2013-08-17 07:01:00,
2013-08-17 03:06:00,63.5,60.0,29.16,NNE,22,2.3,2.3,90,0.00,,,0.00,Rainwise IP-100,2013-08-17 07:06:00,
2013-08-17 03:11:00,63.4,60.0,29.16,NNE,22,0.0,2.0,90,0.00,,,0.00,Rainwise IP-100,2013-08-17 07:11:00,
2013-08-17 03:16:00,63.3,60.0,29.16,NNE,22,0.0,2.0,91,0.00,,,0.00,Rainwise IP-100,2013-08-17 07:16:00,
2013-08-17 03:21:00,63.2,60.0,29.16,NE,45,2.3,6.0,91,0.00,,,0.00,Rainwise IP-100,2013-08-17 07:21:00,
2013-08-17 03:26:00,63.1,60.0,29.16,SSW,202,0.0,3.0,91,0.00,,,0.00,Rainwise IP-100,2013-08-17 07:26:00,
2013-08-17 03:31:00,63.0,60.0,29.16,NNE,22,0.0,1.0,92,0.00,,,0.00,Rainwise IP-100,2013-08-17 07:31:00,
2013-08-17 03:36:00,62.9,60.0,29.16,NNE,22,0.0,2.0,92,0.00,,,0.00,Rainwise IP-100,2013-08-17 07:36:00,
2013-08-17 03:41:00,62.8,60.0,29.16,NNE,22,0.0,1.0,92,0.00,,,0.00,Rainwise IP-100,2013-08-17 07:41:00,
2013-08-17 03:46:00,62.7,60.0,29.16,North,0,1.9,4.0,92,0.00,,,0.00,Rainwise IP-100,2013-08-17 07:46:00,
2013-08-17 03:51:00,62.7,60.0,29.16,NNE,22,0.0,2.0,93,0.00,,,0.00,Rainwise IP-100,2013-08-17 07:51:00,
2013-08-17 03:56:00,62.6,60.0,29.16,NNE,22,1.9,2.0,93,0.00,,,0.00,Rainwise IP-100,2013-08-17 07:56:00,
2013-08-17 04:01:00,62.6,60.0,29.16,NNE,22,0.0,4.0,93,0.00,,,0.00,Rainwise IP-100,2013-08-17 08:01:00,
2013-08-17 04:06:00,62.5,61.0,29.16,NNE,22,0.0,1.0,94,0.00,,,0.00,Rainwise IP-100,2013-08-17 08:06:00,
2013-08-17 04:11:00,62.6,61.0,29.16,ENE,67,0.0,0.0,94,0.00,,,0.00,Rainwise IP-100,2013-08-17 08:11:00,
2013-08-17 04:16:00,62.6,61.0,29.15,NNE,22,0.0,3.0,94,0.00,,,0.00,Rainwise IP-100,2013-08-17 08:16:00,
2013-08-17 04:21:00,62.6,61.0,29.15,NW,315,0.0,1.0,94,0.00,,,0.00,Rainwise IP-100,2013-08-17 08:21:00,
2013-08-17 04:26:00,62.6,61.0,29.15,SSW,202,0.0,3.0,94,0.00,,,0.00,Rainwise IP-100,2013-08-17 08:26:00,
2013-08-17 04:31:00,62.6,61.0,29.15,NNE,22,0.0,2.0,94,0.00,,,0.00,Rainwise IP-100,2013-08-17 08:31:00,
2013-08-17 04:36:00,62.6,61.0,29.15,NNW,337,0.0,2.0,94,0.00,,,0.00,Rainwise IP-100,2013-08-17 08:36:00,
2013-08-17 04:41:00,62.6,61.0,29.15,NNE,22,0.0,3.0,94,0.00,,,0.00,Rainwise IP-100,2013-08-17 08:41:00,
2013-08-17 04:46:00,62.6,61.0,29.15,NNE,22,2.8,6.0,94,0.00,,,0.00,Rainwise IP-100,2013-08-17 08:46:00,
2013-08-17 04:51:00,62.6,61.0,29.15,NNE,22,0.0,4.0,94,0.00,,,0.00,Rainwise IP-100,2013-08-17 08:51:00,
2013-08-17 04:56:00,62.6,61.0,29.15,NNE,22,0.0,6.0,94,0.00,,,0.00,Rainwise IP-100,2013-08-17 08:56:00,
2013-08-17 05:01:00,62.6,61.0,29.15,NNE,22,0.0,4.0,94,0.00,,,0.00,Rainwise IP-100,2013-08-17 09:01:00,
2013-08-17 05:06:00,62.5,61.0,29.15,NNW,337,0.0,4.0,94,0.00,,,0.00,Rainwise IP-100,2013-08-17 09:06:00,
2013-08-17 05:11:00,62.4,61.0,29.15,NNE,22,0.0,3.0,94,0.00,,,0.00,Rainwise IP-100,2013-08-17 09:11:00,
2013-08-17 05:16:00,62.4,61.0,29.15,North,0,1.4,2.0,94,0.00,,,0.00,Rainwise IP-100,2013-08-17 09:16:00,
2013-08-17 05:21:00,62.4,61.0,29.15,NNE,22,1.9,3.0,94,0.00,,,0.00,Rainwise IP-100,2013-08-17 09:21:00,
2013-08-17 05:26:00,62.4,61.0,29.15,South,180,0.0,2.0,94,0.00,,,0.00,Rainwise IP-100,2013-08-17 09:26:00,
2013-08-17 05:31:00,62.4,61.0,29.15,East,90,0.0,2.0,94,0.00,,,0.00,Rainwise IP-100,2013-08-17 09:31:00,
2013-08-17 05:36:00,62.3,60.0,29.15,NNE,22,0.0,2.0,94,0.00,,,0.00,Rainwise IP-100,2013-08-17 09:36:00,
2013-08-17 05:41:00,62.2,60.0,29.15,South,180,0.0,2.0,94,0.00,,,0.00,Rainwise IP-100,2013-08-17 09:41:00,
2013-08-17 05:46:00,62.2,60.0,29.15,South,180,0.0,1.0,94,0.00,,,0.00,Rainwise IP-100,2013-08-17 09:46:00,
2013-08-17 05:51:00,62.1,60.0,29.15,ENE,67,0.0,1.0,94,0.00,,,0.00,Rainwise IP-100,2013-08-17 09:51:00,
2013-08-17 05:56:00,62.0,60.0,29.15,NNE,22,0.0,4.0,95,0.00,,,0.00,Rainwise IP-100,2013-08-17 09:56:00,
2013-08-17 06:01:00,61.9,60.0,29.15,NNE,22,0.0,3.0,95,0.00,,,0.00,Rainwise IP-100,2013-08-17 10:01:00,
2013-08-17 06:06:00,61.9,60.0,29.15,NNE,22,0.0,2.0,95,0.00,,,0.00,Rainwise IP-100,2013-08-17 10:06:00,
2013-08-17 06:11:00,61.8,60.0,29.15,NNE,22,0.0,1.0,95,0.00,,,0.00,Rainwise IP-100,2013-08-17 10:11:00,
2013-08-17 06:16:00,61.8,60.0,29.15,North,0,1.4,2.0,96,0.00,,,0.00,Rainwise IP-100,2013-08-17 10:16:00,
2013-08-17 06:21:00,61.7,60.0,29.15,North,0,0.0,2.0,96,0.00,,,0.00,Rainwise IP-100,2013-08-17 10:21:00,
2013-08-17 06:26:00,61.7,60.0,29.15,WNW,292,0.0,1.0,96,0.00,,,0.00,Rainwise IP-100,2013-08-17 10:26:00,
2013-08-17 06:31:00,61.7,60.0,29.15,NNE,22,0.0,2.0,96,0.00,,,0.00,Rainwise IP-100,2013-08-17 10:31:00,
2013-08-17 06:36:00,61.7,60.0,29.16,NNE,22,0.0,2.0,96,0.00,,,0.00,Rainwise IP-100,2013-08-17 10:36:00,
2013-08-17 06:41:00,61.7,60.0,29.15,NNE,22,0.0,2.0,96,0.00,,,0.00,Rainwise IP-100,2013-08-17 10:41:00,
2013-08-17 06:46:00,61.7,60.0,29.16,NNE,22,3.7,3.7,96,0.00,,,0.00,Rainwise IP-100,2013-08-17 10:46:00,
2013-08-17 06:51:00,61.7,60.0,29.16,NNE,22,0.0,4.0,96,0.00,,,0.00,Rainwise IP-100,2013-08-17 10:51:00,
2013-08-17 06:56:00,61.8,60.0,29.16,NNE,22,1.6,2.0,96,0.00,,,0.00,Rainwise IP-100,2013-08-17 10:56:00,
2013-08-17 07:01:00,61.9,60.0,29.16,SSE,157,0.0,3.0,95,0.00,,,0.00,Rainwise IP-100,2013-08-17 11:01:00,
2013-08-17 07:06:00,62.0,60.0,29.16,South,180,0.0,1.0,95,0.00,,,0.00,Rainwise IP-100,2013-08-17 11:06:00,
2013-08-17 07:11:00,62.0,60.0,29.17,NNE,22,0.0,3.0,95,0.00,,,0.00,Rainwise IP-100,2013-08-17 11:11:00,
2013-08-17 07:16:00,62.0,60.0,29.17,West,270,0.0,2.0,95,0.00,,,0.00,Rainwise IP-100,2013-08-17 11:16:00,
2013-08-17 07:21:00,62.1,60.0,29.18,West,270,0.0,1.0,95,0.00,,,0.00,Rainwise IP-100,2013-08-17 11:21:00,
2013-08-17 07:26:00,62.1,60.0,29.17,NE,45,0.0,4.0,94,0.00,,,0.00,Rainwise IP-100,2013-08-17 11:26:00,
2013-08-17 07:31:00,62.1,60.0,29.17,SW,225,0.0,2.0,94,0.00,,,0.00,Rainwise IP-100,2013-08-17 11:31:00,
2013-08-17 07:36:00,62.1,60.0,29.17,NNE,22,2.3,4.0,94,0.00,,,0.00,Rainwise IP-100,2013-08-17 11:36:00,
2013-08-17 07:41:00,62.1,60.0,29.17,NNE,22,0.0,3.0,94,0.00,,,0.00,Rainwise IP-100,2013-08-17 11:41:00,
2013-08-17 07:46:00,62.2,60.0,29.17,NNE,22,0.0,2.0,94,0.00,,,0.00,Rainwise IP-100,2013-08-17 11:46:00,
2013-08-17 07:51:00,62.3,60.0,29.17,WSW,247,0.0,1.0,93,0.00,,,0.00,Rainwise IP-100,2013-08-17 11:51:00,
2013-08-17 07:56:00,62.4,60.0,29.16,NNE,22,0.0,2.0,93,0.00,,,0.00,Rainwise IP-100,2013-08-17 11:56:00,
2013-08-17 08:01:00,62.5,60.0,29.16,SSE,157,1.9,4.0,92,0.00,,,0.00,Rainwise IP-100,2013-08-17 12:01:00,
2013-08-17 08:06:00,62.6,60.0,29.17,NNE,22,3.0,3.0,92,0.00,,,0.00,Rainwise IP-100,2013-08-17 12:06:00,
2013-08-17 08:11:00,62.7,60.0,29.17,NNW,337,0.0,3.0,91,0.00,,,0.00,Rainwise IP-100,2013-08-17 12:11:00,
2013-08-17 08:16:00,62.9,60.0,29.17,SSW,202,3.7,3.7,91,0.00,,,0.00,Rainwise IP-100,2013-08-17 12:16:00,
2013-08-17 08:21:00,63.0,60.0,29.17,NNE,22,1.2,3.0,90,0.00,,,0.00,Rainwise IP-100,2013-08-17 12:21:00,
2013-08-17 08:26:00,63.2,60.0,29.17,NNE,22,0.0,4.0,90,0.00,,,0.00,Rainwise IP-100,2013-08-17 12:26:00,
2013-08-17 08:31:00,63.3,60.0,29.17,NNE,22,1.4,2.0,90,0.00,,,0.00,Rainwise IP-100,2013-08-17 12:31:00,
2013-08-17 08:36:00,63.4,60.0,29.17,NNE,22,1.4,4.0,89,0.00,,,0.00,Rainwise IP-100,2013-08-17 12:36:00,
2013-08-17 08:41:00,63.5,60.0,29.18,NNE,22,0.0,3.0,89,0.00,,,0.00,Rainwise IP-100,2013-08-17 12:41:00,
2013-08-17 08:46:00,63.5,60.0,29.18,NNE,22,0.0,2.0,89,0.00,,,0.00,Rainwise IP-100,2013-08-17 12:46:00,
2013-08-17 08:51:00,63.5,60.0,29.18,NNE,22,0.0,5.0,89,0.00,,,0.00,Rainwise IP-100,2013-08-17 12:51:00,
2013-08-17 08:56:00,63.5,60.0,29.18,NNE,22,2.1,2.1,89,0.00,,,0.00,Rainwise IP-100,2013-08-17 12:56:00,
2013-08-17 09:01:00,63.6,60.0,29.18,WSW,247,0.0,5.0,88,0.00,,,0.00,Rainwise IP-100,2013-08-17 13:01:00,
2013-08-17 09:06:00,63.6,60.0,29.19,NE,45,0.0,4.0,88,0.00,,,0.00,Rainwise IP-100,2013-08-17 13:06:00,
2013-08-17 09:11:00,63.6,60.0,29.19,North,0,0.0,3.0,88,0.00,,,0.00,Rainwise IP-100,2013-08-17 13:11:00,
2013-08-17 09:16:00,63.6,60.0,29.18,ESE,112,0.0,5.0,88,0.00,,,0.00,Rainwise IP-100,2013-08-17 13:16:00,
2013-08-17 09:21:00,63.7,60.0,29.18,WNW,292,0.0,2.0,88,0.00,,,0.00,Rainwise IP-100,2013-08-17 13:21:00,
2013-08-17 09:26:00,63.9,60.0,29.18,North,0,0.0,2.0,88,0.00,,,0.00,Rainwise IP-100,2013-08-17 13:26:00,
2013-08-17 09:31:00,63.9,60.0,29.19,SSW,202,0.0,4.0,87,0.00,,,0.00,Rainwise IP-100,2013-08-17 13:31:00,
2013-08-17 09:36:00,63.9,60.0,29.19,North,0,0.0,5.0,87,0.00,,,0.00,Rainwise IP-100,2013-08-17 13:36:00,
2013-08-17 09:41:00,64.0,60.0,29.19,North,0,0.0,1.0,87,0.00,,,0.00,Rainwise IP-100,2013-08-17 13:41:00,
2013-08-17 09:46:00,64.0,60.0,29.20,NNE,22,0.0,1.0,87,0.00,,,0.00,Rainwise IP-100,2013-08-17 13:46:00,
2013-08-17 09:51:00,64.0,60.0,29.19,NE,45,0.0,2.0,87,0.00,,,0.00,Rainwise IP-100,2013-08-17 13:51:00,
2013-08-17 09:56:00,64.0,60.0,29.19,NNE,22,0.0,2.0,87,0.00,,,0.00,Rainwise IP-100,2013-08-17 13:56:00,
2013-08-17 10:01:00,64.0,60.0,29.19,NNE,22,0.0,0.0,87,0.00,,,0.00,Rainwise IP-100,2013-08-17 14:01:00,
2013-08-17 10:06:00,64.0,60.0,29.20,SE,135,0.0,3.0,87,0.00,,,0.00,Rainwise IP-100,2013-08-17 14:06:00,
2013-08-17 10:11:00,63.9,60.0,29.20,NNE,22,1.2,1.2,88,0.00,,,0.00,Rainwise IP-100,2013-08-17 14:11:00,
2013-08-17 10:16:00,63.9,60.0,29.20,NNW,337,1.9,1.9,88,0.00,,,0.00,Rainwise IP-100,2013-08-17 14:16:00,
2013-08-17 10:21:00,63.9,60.0,29.20,North,0,0.0,4.0,88,0.00,,,0.00,Rainwise IP-100,2013-08-17 14:21:00,
2013-08-17 10:26:00,64.0,60.0,29.20,WNW,292,0.0,5.0,89,0.00,,,0.00,Rainwise IP-100,2013-08-17 14:26:00,
2013-08-17 10:31:00,64.0,60.0,29.20,NE,45,0.0,3.0,89,0.00,,,0.00,Rainwise IP-100,2013-08-17 14:31:00,
2013-08-17 10:36:00,64.1,60.0,29.20,WNW,292,0.0,1.0,89,0.00,,,0.00,Rainwise IP-100,2013-08-17 14:36:00,
2013-08-17 10:41:00,64.2,61.0,29.20,NNE,22,0.0,5.0,90,0.00,,,0.00,Rainwise IP-100,2013-08-17 14:41:00,
2013-08-17 10:46:00,64.2,61.0,29.20,NE,45,1.4,1.4,90,0.00,,,0.00,Rainwise IP-100,2013-08-17 14:46:00,
2013-08-17 10:51:00,64.3,61.0,29.20,ENE,67,0.0,3.0,90,0.00,,,0.00,Rainwise IP-100,2013-08-17 14:51:00,
2013-08-17 10:56:00,64.2,61.0,29.20,NNE,22,0.0,2.0,90,0.00,,,0.00,Rainwise IP-100,2013-08-17 14:56:00,
2013-08-17 11:01:00,64.1,61.0,29.20,NNE,22,1.9,2.0,90,0.00,,,0.00,Rainwise IP-100,2013-08-17 15:01:00,
2013-08-17 11:06:00,64.0,61.0,29.20,NNE,22,0.0,3.0,91,0.00,,,0.00,Rainwise IP-100,2013-08-17 15:06:00,
2013-08-17 11:11:00,63.9,61.0,29.20,SSW,202,0.0,3.0,91,0.00,,,0.00,Rainwise IP-100,2013-08-17 15:11:00,
2013-08-17 11:16:00,63.8,61.0,29.20,North,0,0.0,4.0,91,0.00,,,0.00,Rainwise IP-100,2013-08-17 15:16:00,
2013-08-17 11:21:00,63.7,61.0,29.20,NNE,22,0.0,1.0,92,0.00,,,0.00,Rainwise IP-100,2013-08-17 15:21:00,
2013-08-17 11:26:00,63.6,61.0,29.20,NNE,22,0.0,2.0,92,0.00,,,0.00,Rainwise IP-100,2013-08-17 15:26:00,
2013-08-17 11:31:00,63.5,61.0,29.20,NNE,22,0.0,2.0,93,0.00,,,0.00,Rainwise IP-100,2013-08-17 15:31:00,
2013-08-17 11:36:00,63.5,61.0,29.20,NNW,337,0.0,4.0,93,0.00,,,0.00,Rainwise IP-100,2013-08-17 15:36:00,
2013-08-17 11:41:00,63.5,61.0,29.20,North,0,1.2,1.2,94,0.00,,,0.00,Rainwise IP-100,2013-08-17 15:41:00,
2013-08-17 11:46:00,63.5,61.0,29.20,NNE,22,1.4,2.0,94,0.00,,,0.00,Rainwise IP-100,2013-08-17 15:46:00,
2013-08-17 11:51:00,63.5,61.0,29.20,NNE,22,0.0,3.0,94,0.00,,,0.00,Rainwise IP-100,2013-08-17 15:51:00,
2013-08-17 11:56:00,63.5,61.0,29.20,NNE,22,1.2,1.2,94,0.00,,,0.00,Rainwise IP-100,2013-08-17 15:56:00,
2013-08-17 12:01:00,63.6,61.0,29.20,NNE,22,1.4,2.0,94,0.00,,,0.00,Rainwise IP-100,2013-08-17 16:01:00,
2013-08-17 12:06:00,63.6,61.0,29.20,NNE,22,1.2,1.2,94,0.00,,,0.00,Rainwise IP-100,2013-08-17 16:06:00,
2013-08-17 12:11:00,63.7,61.0,29.20,NNW,337,1.2,1.2,94,0.00,,,0.00,Rainwise IP-100,2013-08-17 16:11:00,
2013-08-17 12:16:00,63.8,61.0,29.20,West,270,0.0,3.0,94,0.00,,,0.00,Rainwise IP-100,2013-08-17 16:16:00,
2013-08-17 12:21:00,63.8,61.0,29.20,NNE,22,0.0,1.0,94,0.00,,,0.00,Rainwise IP-100,2013-08-17 16:21:00,
2013-08-17 12:26:00,63.9,62.0,29.19,NNE,22,0.0,2.0,94,0.00,,,0.00,Rainwise IP-100,2013-08-17 16:26:00,
2013-08-17 12:31:00,63.9,62.0,29.20,SSW,202,0.0,0.0,94,0.00,,,0.00,Rainwise IP-100,2013-08-17 16:31:00,
2013-08-17 12:36:00,63.9,62.0,29.19,NNE,22,0.0,2.0,94,0.00,,,0.00,Rainwise IP-100,2013-08-17 16:36:00,
2013-08-17 12:41:00,63.9,62.0,29.19,NNE,22,0.0,3.0,94,0.00,,,0.00,Rainwise IP-100,2013-08-17 16:41:00,
2013-08-17 12:46:00,63.8,61.0,29.19,South,180,0.0,2.0,94,0.00,,,0.00,Rainwise IP-100,2013-08-17 16:46:00,
2013-08-17 12:51:00,63.7,62.0,29.19,South,180,0.0,1.0,95,0.00,,,0.00,Rainwise IP-100,2013-08-17 16:51:00,
2013-08-17 12:56:00,63.6,62.0,29.19,NNE,22,0.0,3.0,95,0.00,,,0.00,Rainwise IP-100,2013-08-17 16:56:00,
2013-08-17 13:01:00,63.5,62.0,29.19,NNE,22,0.0,5.0,95,0.06,,,0.01,Rainwise IP-100,2013-08-17 17:01:00,
2013-08-17 13:06:00,63.5,62.0,29.19,NNE,22,0.0,2.0,96,0.06,,,0.01,Rainwise IP-100,2013-08-17 17:06:00,
2013-08-17 13:11:00,63.5,62.0,29.18,NNE,22,0.0,1.0,96,0.06,,,0.02,Rainwise IP-100,2013-08-17 17:11:00,
2013-08-17 13:16:00,63.5,62.0,29.18,NNE,22,1.2,3.0,96,0.12,,,0.03,Rainwise IP-100,2013-08-17 17:16:00,
2013-08-17 13:21:00,63.5,62.0,29.18,NNE,22,0.0,2.0,96,0.06,,,0.03,Rainwise IP-100,2013-08-17 17:21:00,
2013-08-17 13:26:00,63.5,62.0,29.18,NNE,22,0.0,3.0,97,0.00,,,0.03,Rainwise IP-100,2013-08-17 17:26:00,
2013-08-17 13:31:00,63.5,62.0,29.18,WSW,247,0.0,2.0,97,0.18,,,0.06,Rainwise IP-100,2013-08-17 17:31:00,
2013-08-17 13:36:00,63.5,62.0,29.18,WSW,247,0.0,0.0,97,0.48,,,0.12,Rainwise IP-100,2013-08-17 17:36:00,
2013-08-17 13:41:00,63.5,62.0,29.18,NNE,22,0.0,0.0,97,0.48,,,0.14,Rainwise IP-100,2013-08-17 17:41:00,
2013-08-17 13:46:00,63.5,62.0,29.18,NNE,22,0.0,2.0,97,0.18,,,0.14,Rainwise IP-100,2013-08-17 17:46:00,
2013-08-17 13:51:00,63.5,62.0,29.17,NNE,22,0.0,0.0,97,0.00,,,0.14,Rainwise IP-100,2013-08-17 17:51:00,
2013-08-17 13:56:00,63.4,63.0,29.18,NNE,22,0.0,0.0,98,0.00,,,0.14,Rainwise IP-100,2013-08-17 17:56:00,
2013-08-17 14:01:00,63.4,63.0,29.17,NNE,22,0.0,0.0,98,0.06,,,0.15,Rainwise IP-100,2013-08-17 18:01:00,
2013-08-17 14:06:00,63.5,63.0,29.17,NNE,22,0.0,1.0,98,0.06,,,0.15,Rainwise IP-100,2013-08-17 18:06:00,
2013-08-17 14:11:00,63.5,63.0,29.17,NNE,22,0.0,1.0,98,0.00,,,0.15,Rainwise IP-100,2013-08-17 18:11:00,
2013-08-17 14:16:00,63.5,63.0,29.17,NNE,22,0.0,3.0,98,0.06,,,0.16,Rainwise IP-100,2013-08-17 18:16:00,
2013-08-17 14:21:00,63.5,63.0,29.17,NNE,22,0.0,2.0,98,0.06,,,0.16,Rainwise IP-100,2013-08-17 18:21:00,
2013-08-17 14:26:00,63.5,63.0,29.17,NNE,22,0.0,3.0,98,0.00,,,0.16,Rainwise IP-100,2013-08-17 18:26:00,
2013-08-17 14:31:00,63.5,63.0,29.18,NNE,22,0.0,2.0,98,0.00,,,0.16,Rainwise IP-100,2013-08-17 18:31:00,
2013-08-17 14:36:00,63.5,63.0,29.17,NNE,22,0.0,2.0,98,0.00,,,0.16,Rainwise IP-100,2013-08-17 18:36:00,
2013-08-17 14:41:00,63.5,63.0,29.17,NNE,22,0.0,0.0,98,0.06,,,0.17,Rainwise IP-100,2013-08-17 18:41:00,
2013-08-17 14:46:00,63.5,63.0,29.17,NNE,22,0.0,0.0,98,0.06,,,0.17,Rainwise IP-100,2013-08-17 18:46:00,
2013-08-17 14:51:00,63.5,63.0,29.17,SSE,157,0.0,0.0,98,0.00,,,0.17,Rainwise IP-100,2013-08-17 18:51:00,
2013-08-17 14:56:00,63.6,63.0,29.17,NNE,22,0.0,0.0,98,0.00,,,0.17,Rainwise IP-100,2013-08-17 18:56:00,
2013-08-17 15:01:00,63.6,63.0,29.17,North,0,0.0,2.0,99,0.00,,,0.17,Rainwise IP-100,2013-08-17 19:01:00,
2013-08-17 15:06:00,63.7,63.0,29.17,North,0,0.0,0.0,99,0.00,,,0.17,Rainwise IP-100,2013-08-17 19:06:00,
2013-08-17 15:11:00,63.8,63.0,29.16,North,0,0.0,0.0,99,0.00,,,0.17,Rainwise IP-100,2013-08-17 19:11:00,
2013-08-17 15:16:00,63.8,63.0,29.16,SSE,157,0.0,1.0,99,0.00,,,0.17,Rainwise IP-100,2013-08-17 19:16:00,
2013-08-17 15:21:00,63.8,63.0,29.16,SSE,157,0.0,0.0,99,0.00,,,0.17,Rainwise IP-100,2013-08-17 19:21:00,
2013-08-17 15:26:00,63.9,63.0,29.17,NNE,22,0.0,3.0,99,0.00,,,0.17,Rainwise IP-100,2013-08-17 19:26:00,
2013-08-17 15:31:00,64.0,63.0,29.16,NNE,22,0.0,3.0,99,0.00,,,0.17,Rainwise IP-100,2013-08-17 19:31:00,
2013-08-17 15:36:00,64.0,63.0,29.16,NNE,22,0.0,0.0,99,0.00,,,0.17,Rainwise IP-100,2013-08-17 19:36:00,
2013-08-17 15:41:00,64.0,63.0,29.16,NNE,22,0.0,1.0,99,0.00,,,0.17,Rainwise IP-100,2013-08-17 19:41:00,
2013-08-17 15:46:00,64.1,63.0,29.16,NNE,22,0.0,1.0,99,0.00,,,0.17,Rainwise IP-100,2013-08-17 19:46:00,
2013-08-17 15:51:00,64.1,63.0,29.15,NE,45,0.0,0.0,99,0.00,,,0.17,Rainwise IP-100,2013-08-17 19:51:00,
2013-08-17 15:56:00,64.1,63.0,29.15,WSW,247,0.0,0.0,99,0.00,,,0.17,Rainwise IP-100,2013-08-17 19:56:00,
2013-08-17 16:01:00,64.2,63.0,29.15,ENE,67,1.2,2.0,99,0.00,,,0.17,Rainwise IP-100,2013-08-17 20:01:00,
2013-08-17 16:06:00,64.2,63.0,29.15,NE,45,0.0,1.0,99,0.00,,,0.17,Rainwise IP-100,2013-08-17 20:06:00,
2013-08-17 16:11:00,64.2,63.0,29.15,NE,45,0.0,1.0,99,0.00,,,0.17,Rainwise IP-100,2013-08-17 20:11:00,
2013-08-17 16:16:00,64.2,63.0,29.15,SE,135,0.0,0.0,99,0.00,,,0.17,Rainwise IP-100,2013-08-17 20:16:00,
2013-08-17 16:21:00,64.3,63.0,29.15,NW,315,0.0,2.0,99,0.00,,,0.17,Rainwise IP-100,2013-08-17 20:21:00,
2013-08-17 16:26:00,64.3,63.0,29.14,SSE,157,0.0,3.0,99,0.00,,,0.17,Rainwise IP-100,2013-08-17 20:26:00,
2013-08-17 16:31:00,64.4,64.0,29.15,NNE,22,0.0,3.0,99,0.00,,,0.17,Rainwise IP-100,2013-08-17 20:31:00,
2013-08-17 16:36:00,64.4,64.0,29.15,NNE,22,0.0,3.0,98,0.00,,,0.17,Rainwise IP-100,2013-08-17 20:36:00,
2013-08-17 16:41:00,64.4,64.0,29.15,NNE,22,0.0,3.0,98,0.00,,,0.17,Rainwise IP-100,2013-08-17 20:41:00,
2013-08-17 16:46:00,64.4,64.0,29.15,WSW,247,0.0,2.0,98,0.00,,,0.17,Rainwise IP-100,2013-08-17 20:46:00,
2013-08-17 16:51:00,64.4,64.0,29.15,NNE,22,0.0,0.0,98,0.00,,,0.17,Rainwise IP-100,2013-08-17 20:51:00,
2013-08-17 16:56:00,64.4,64.0,29.15,NW,315,0.0,0.0,98,0.00,,,0.17,Rainwise IP-100,2013-08-17 20:56:00,
2013-08-17 17:01:00,64.4,64.0,29.15,NW,315,0.0,0.0,98,0.00,,,0.17,Rainwise IP-100,2013-08-17 21:01:00,
2013-08-17 17:06:00,64.4,64.0,29.15,West,270,0.0,0.0,98,0.00,,,0.17,Rainwise IP-100,2013-08-17 21:06:00,
2013-08-17 17:11:00,64.4,64.0,29.16,West,270,0.0,0.0,98,0.00,,,0.17,Rainwise IP-100,2013-08-17 21:11:00,
2013-08-17 17:16:00,64.4,64.0,29.16,West,270,0.0,0.0,98,0.00,,,0.17,Rainwise IP-100,2013-08-17 21:16:00,
2013-08-17 17:21:00,64.4,64.0,29.16,North,0,1.6,0.0,98,0.06,,,0.18,Rainwise IP-100,2013-08-17 21:21:00,
2013-08-17 17:26:00,64.4,64.0,29.16,NNE,22,0.0,3.0,98,0.06,,,0.18,Rainwise IP-100,2013-08-17 21:26:00,
2013-08-17 17:31:00,64.4,64.0,29.16,NNE,22,0.0,0.0,98,0.00,,,0.18,Rainwise IP-100,2013-08-17 21:31:00,
2013-08-17 17:36:00,64.4,64.0,29.16,NNE,22,0.0,0.0,98,0.00,,,0.18,Rainwise IP-100,2013-08-17 21:36:00,
2013-08-17 17:41:00,64.4,64.0,29.16,NNE,22,0.0,0.0,98,0.00,,,0.18,Rainwise IP-100,2013-08-17 21:41:00,
2013-08-17 17:46:00,64.4,64.0,29.15,NNE,22,0.0,0.0,98,0.00,,,0.18,Rainwise IP-100,2013-08-17 21:46:00,
2013-08-17 17:51:00,64.4,64.0,29.15,North,0,0.0,0.0,99,0.06,,,0.19,Rainwise IP-100,2013-08-17 21:51:00,
2013-08-17 17:56:00,64.4,64.0,29.14,West,270,0.0,0.0,99,0.06,,,0.19,Rainwise IP-100,2013-08-17 21:56:00,
2013-08-17 18:01:00,64.5,64.0,29.15,SW,225,0.0,1.0,99,0.00,,,0.19,Rainwise IP-100,2013-08-17 22:01:00,
2013-08-17 18:06:00,64.6,64.0,29.15,East,90,0.0,1.0,99,0.00,,,0.19,Rainwise IP-100,2013-08-17 22:06:00,
2013-08-17 18:11:00,64.6,64.0,29.16,NNE,22,0.0,1.0,99,0.00,,,0.19,Rainwise IP-100,2013-08-17 22:11:00,
2013-08-17 18:16:00,64.7,64.0,29.16,NNE,22,0.0,1.0,99,0.00,,,0.19,Rainwise IP-100,2013-08-17 22:16:00,
2013-08-17 18:21:00,64.7,64.0,29.16,NNE,22,0.0,1.0,99,0.00,,,0.19,Rainwise IP-100,2013-08-17 22:21:00,
2013-08-17 18:26:00,64.7,64.0,29.17,NNE,22,0.0,0.0,99,0.00,,,0.19,Rainwise IP-100,2013-08-17 22:26:00,
2013-08-17 18:31:00,64.7,64.0,29.16,NNE,22,0.0,0.0,99,0.00,,,0.19,Rainwise IP-100,2013-08-17 22:31:00,
2013-08-17 18:36:00,64.6,64.0,29.16,NNE,22,1.2,2.0,99,0.00,,,0.19,Rainwise IP-100,2013-08-17 22:36:00,
2013-08-17 18:41:00,64.5,64.0,29.16,NNE,22,0.0,1.0,99,0.00,,,0.19,Rainwise IP-100,2013-08-17 22:41:00,
2013-08-17 18:46:00,64.5,64.0,29.16,NNE,22,0.0,1.0,99,0.00,,,0.19,Rainwise IP-100,2013-08-17 22:46:00,
2013-08-17 18:51:00,64.5,64.0,29.16,NNE,22,0.0,0.0,99,0.00,,,0.19,Rainwise IP-100,2013-08-17 22:51:00,
2013-08-17 18:56:00,64.5,64.0,29.16,NNE,22,0.0,0.0,99,0.00,,,0.19,Rainwise IP-100,2013-08-17 22:56:00,
2013-08-17 19:01:00,64.6,64.0,29.15,NNE,22,1.4,2.0,99,0.00,,,0.19,Rainwise IP-100,2013-08-17 23:01:00,
2013-08-17 19:06:00,64.6,64.0,29.15,NNE,22,0.0,2.0,99,0.00,,,0.19,Rainwise IP-100,2013-08-17 23:06:00,
2013-08-17 19:11:00,64.5,64.0,29.16,NNE,22,0.0,0.0,99,0.00,,,0.19,Rainwise IP-100,2013-08-17 23:11:00,
2013-08-17 19:16:00,64.5,64.0,29.16,NNE,22,0.0,0.0,99,0.00,,,0.19,Rainwise IP-100,2013-08-17 23:16:00,
2013-08-17 19:21:00,64.5,64.0,29.16,NNE,22,0.0,0.0,99,0.00,,,0.19,Rainwise IP-100,2013-08-17 23:21:00,
2013-08-17 19:26:00,64.5,64.0,29.16,NNE,22,0.0,1.0,99,0.00,,,0.19,Rainwise IP-100,2013-08-17 23:26:00,
2013-08-17 19:31:00,64.6,64.0,29.16,NNE,22,0.0,0.0,99,0.00,,,0.19,Rainwise IP-100,2013-08-17 23:31:00,
2013-08-17 19:36:00,64.6,64.0,29.18,NNE,22,0.0,0.0,99,0.00,,,0.19,Rainwise IP-100,2013-08-17 23:36:00,
2013-08-17 19:41:00,64.6,64.0,29.17,NNE,22,0.0,0.0,99,0.00,,,0.19,Rainwise IP-100,2013-08-17 23:41:00,
2013-08-17 19:46:00,64.6,64.0,29.16,NNE,22,0.0,0.0,99,0.00,,,0.19,Rainwise IP-100,2013-08-17 23:46:00,
2013-08-17 19:51:00,64.7,64.0,29.18,NNE,22,0.0,0.0,99,0.00,,,0.19,Rainwise IP-100,2013-08-17 23:51:00,
2013-08-17 19:56:00,64.7,64.0,29.18,NNE,22,0.0,0.0,99,0.00,,,0.19,Rainwise IP-100,2013-08-17 23:56:00,
2013-08-17 20:01:00,64.6,64.0,29.18,NNE,22,0.0,0.0,99,0.00,,,0.19,Rainwise IP-100,2013-08-18 00:01:00,
2013-08-17 20:06:00,64.5,64.0,29.17,NNE,22,0.0,0.0,99,0.00,,,0.19,Rainwise IP-100,2013-08-18 00:06:00,
2013-08-17 20:11:00,64.6,64.0,29.16,NNE,22,0.0,0.0,99,0.00,,,0.19,Rainwise IP-100,2013-08-18 00:11:00,
2013-08-17 20:16:00,64.7,64.0,29.18,NNE,22,0.0,0.0,99,0.00,,,0.19,Rainwise IP-100,2013-08-18 00:16:00,
2013-08-17 20:21:00,64.8,64.0,29.17,NNE,22,0.0,0.0,99,0.00,,,0.19,Rainwise IP-100,2013-08-18 00:21:00,
2013-08-17 20:26:00,64.7,64.0,29.18,ENE,67,0.0,0.0,99,0.00,,,0.19,Rainwise IP-100,2013-08-18 00:26:00,
2013-08-17 20:31:00,64.7,64.0,29.18,ENE,67,0.0,0.0,99,0.00,,,0.19,Rainwise IP-100,2013-08-18 00:31:00,
2013-08-17 20:36:00,64.8,64.0,29.18,NNE,22,0.0,1.0,99,0.00,,,0.19,Rainwise IP-100,2013-08-18 00:36:00,
2013-08-17 20:41:00,64.7,64.0,29.18,NNE,22,0.0,0.0,99,0.00,,,0.19,Rainwise IP-100,2013-08-18 00:41:00,
2013-08-17 20:46:00,64.7,64.0,29.18,NNE,22,0.0,0.0,99,0.00,,,0.19,Rainwise IP-100,2013-08-18 00:46:00,
2013-08-17 20:51:00,64.7,64.0,29.18,NNE,22,0.0,0.0,99,0.00,,,0.19,Rainwise IP-100,2013-08-18 00:51:00,
2013-08-17 20:56:00,64.7,64.0,29.18,NNE,22,0.0,0.0,99,0.00,,,0.19,Rainwise IP-100,2013-08-18 00:56:00,
2013-08-17 21:01:00,64.7,64.0,29.17,NNE,22,1.2,1.2,99,0.00,,,0.19,Rainwise IP-100,2013-08-18 01:01:00,
2013-08-17 21:06:00,64.8,64.0,29.17,NNE,22,0.0,1.0,99,0.00,,,0.19,Rainwise IP-100,2013-08-18 01:06:00,
2013-08-17 21:11:00,64.8,64.0,29.17,NNE,22,0.0,1.0,99,0.00,,,0.19,Rainwise IP-100,2013-08-18 01:11:00,
2013-08-17 21:16:00,64.7,64.0,29.18,NNE,22,0.0,0.0,99,0.00,,,0.19,Rainwise IP-100,2013-08-18 01:16:00,
2013-08-17 21:21:00,64.7,64.0,29.18,NNE,22,0.0,0.0,99,0.00,,,0.19,Rainwise IP-100,2013-08-18 01:21:00,
2013-08-17 21:26:00,64.8,64.0,29.18,NNE,22,0.0,1.0,99,0.00,,,0.19,Rainwise IP-100,2013-08-18 01:26:00,
2013-08-17 21:31:00,64.9,64.0,29.18,NNE,22,0.0,0.0,99,0.00,,,0.19,Rainwise IP-100,2013-08-18 01:31:00,
2013-08-17 21:36:00,64.9,64.0,29.18,NNE,22,0.0,0.0,99,0.00,,,0.19,Rainwise IP-100,2013-08-18 01:36:00,
2013-08-17 21:41:00,64.9,64.0,29.19,NNE,22,0.0,0.0,99,0.00,,,0.19,Rainwise IP-100,2013-08-18 01:41:00,
2013-08-17 21:46:00,64.9,64.0,29.19,NNE,22,0.0,0.0,99,0.00,,,0.19,Rainwise IP-100,2013-08-18 01:46:00,
2013-08-17 21:51:00,64.9,64.0,29.19,NNE,22,0.0,0.0,99,0.00,,,0.19,Rainwise IP-100,2013-08-18 01:51:00,
2013-08-17 21:56:00,64.9,64.0,29.19,NNE,22,0.0,0.0,99,0.00,,,0.19,Rainwise IP-100,2013-08-18 01:56:00,
2013-08-17 22:01:00,64.9,64.0,29.19,NNE,22,0.0,0.0,99,0.00,,,0.19,Rainwise IP-100,2013-08-18 02:01:00,
2013-08-17 22:06:00,64.9,64.0,29.19,NNE,22,0.0,0.0,99,0.00,,,0.19,Rainwise IP-100,2013-08-18 02:06:00,
2013-08-17 22:11:00,64.9,64.0,29.20,NNE,22,0.0,0.0,99,0.00,,,0.19,Rainwise IP-100,2013-08-18 02:11:00,
2013-08-17 22:16:00,65.0,64.0,29.20,NNE,22,0.0,0.0,99,0.00,,,0.19,Rainwise IP-100,2013-08-18 02:16:00,
2013-08-17 22:21:00,65.0,64.0,29.19,NNE,22,0.0,0.0,99,0.00,,,0.19,Rainwise IP-100,2013-08-18 02:21:00,
2013-08-17 22:26:00,65.0,65.0,29.19,NNE,22,0.0,1.0,100,0.00,,,0.19,Rainwise IP-100,2013-08-18 02:26:00,
2013-08-17 22:31:00,65.0,65.0,29.19,NNE,22,0.0,1.0,100,0.00,,,0.19,Rainwise IP-100,2013-08-18 02:31:00,
2013-08-17 22:36:00,65.1,65.0,29.19,NNE,22,0.0,0.0,100,0.00,,,0.19,Rainwise IP-100,2013-08-18 02:36:00,
2013-08-17 22:41:00,65.0,65.0,29.19,NNE,22,0.0,0.0,100,0.00,,,0.19,Rainwise IP-100,2013-08-18 02:41:00,
2013-08-17 22:46:00,65.0,65.0,29.19,NNE,22,0.0,2.0,100,0.00,,,0.19,Rainwise IP-100,2013-08-18 02:46:00,
2013-08-17 22:51:00,65.0,65.0,29.19,NNE,22,0.0,0.0,100,0.00,,,0.19,Rainwise IP-100,2013-08-18 02:51:00,
2013-08-17 22:56:00,65.0,65.0,29.19,NNE,22,0.0,0.0,100,0.00,,,0.19,Rainwise IP-100,2013-08-18 02:56:00,
2013-08-17 23:01:00,65.1,65.0,29.20,NNE,22,0.0,0.0,100,0.00,,,0.19,Rainwise IP-100,2013-08-18 03:01:00,
2013-08-17 23:06:00,65.1,65.0,29.20,NNE,22,0.0,0.0,100,0.00,,,0.19,Rainwise IP-100,2013-08-18 03:06:00,
2013-08-17 23:07:00,65.1,65.0,29.20,NNE,22,0.0,0.0,100,0.00,,,0.19,Rainwise IP-100,2013-08-18 03:07:00,
2013-08-17 23:12:00,65.1,65.0,29.20,NNE,22,0.0,0.0,100,0.00,,,0.19,Rainwise IP-100,2013-08-18 03:12:00,
2013-08-17 23:17:00,65.1,65.0,29.20,NNE,22,0.0,0.0,100,0.00,,,0.19,Rainwise IP-100,2013-08-18 03:17:00,
2013-08-17 23:22:00,65.1,65.0,29.20,NNE,22,0.0,0.0,100,0.00,,,0.19,Rainwise IP-100,2013-08-18 03:22:00,
2013-08-17 23:27:00,65.1,65.0,29.21,NNE,22,0.0,0.0,100,0.00,,,0.19,Rainwise IP-100,2013-08-18 03:27:00,
2013-08-17 23:32:00,65.2,65.0,29.21,ESE,112,0.0,0.0,100,0.00,,,0.19,Rainwise IP-100,2013-08-18 03:32:00,
2013-08-17 23:37:00,65.3,65.0,29.20,ESE,112,0.0,0.0,100,0.00,,,0.19,Rainwise IP-100,2013-08-18 03:37:00,
2013-08-17 23:42:00,65.3,65.0,29.21,ESE,112,0.0,0.0,100,0.00,,,0.19,Rainwise IP-100,2013-08-18 03:42:00,
2013-08-17 23:47:00,65.3,65.0,29.21,ESE,112,0.0,0.0,100,0.00,,,0.19,Rainwise IP-100,2013-08-18 03:47:00,
2013-08-17 23:52:00,65.3,65.0,29.20,NE,45,0.0,0.0,100,0.00,,,0.19,Rainwise IP-100,2013-08-18 03:52:00,
2013-08-17 23:57:00,65.3,65.0,29.20,NNE,22,0.0,2.0,100,0.00,,,0.19,Rainwise IP-100,2013-08-18 03:57:00,